GFSNGP_925_spd_000.txt.gz
Wind_Speed
7 7 5 15 17 16 9 14 5 8 9 10 3 4 6 6 6 7 6 7 7 7 8 16 20 22 12 17 20 23 17 6 7 9 6 5 5 5 16 11 12 12 14 14
10 6 8 17 14 12 13 13 9 9 14 2 6 6 7 6 11 9 7 9 11 9 13 16 19 15 16 21 22 18 13 4 5 4 4 2 11 9 14 15 10 10 12 14
5 4 4 10 8 6 5 7 7 6 6 4 6 9 11 16 13 10 8 12 12 11 15 16 11 13 19 18 15 6 3 3 6 7 7 8 9 12 14 9 9 12 16 17
3 1 4 9 6 7 6 7 6 3 5 7 7 7 9 10 10 7 12 14 13 15 16 13 15 19 15 10 8 8 9 8 8 7 8 10 8 8 9 12 15 16 15 13
1 3 6 10 10 2 2 8 5 5 7 7 8 9 6 5 4 12 16 18 15 12 11 14 17 15 11 14 12 8 14 13 14 15 14 11 13 12 14 15 15 16 14 12
2 3 6 8 5 4 2 6 7 4 7 7 5 10 11 1 13 17 19 7 8 13 15 13 9 10 12 15 14 13 10 9 8 8 9 10 12 13 13 16 15 14 8 14
2 6 8 10 7 1 4 7 5 6 12 11 6 6 9 7 12 11 0 6 11 13 12 8 9 10 7 9 10 11 11 10 10 11 13 13 12 14 15 16 9 14 17 21
2 3 8 1 4 3 7 4 11 15 9 6 5 5 6 10 9 4 7 13 15 9 5 8 6 4 4 2 10 7 10 10 12 13 13 11 14 15 14 9 13 18 20 22
8 7 4 4 10 6 7 15 8 4 3 3 6 8 11 5 4 4 10 15 11 7 7 5 4 7 5 1 6 10 11 12 13 12 12 14 14 13 8 14 16 17 19 21
7 7 10 11 18 18 9 4 3 3 5 4 4 8 8 5 5 5 10 10 10 12 9 8 7 4 0 3 8 10 13 13 12 13 12 12 12 10 11 17 16 17 20 18
13 16 19 15 12 5 4 3 3 4 7 5 4 11 5 5 5 7 10 10 10 9 10 16 6 6 5 6 8 12 12 13 13 9 10 12 13 9 14 15 13 17 19 15
14 16 12 15 4 5 7 9 11 6 10 15 14 7 7 6 10 8 7 7 11 12 9 7 9 6 6 8 8 13 14 14 11 10 12 13 12 14 12 10 13 13 13 14
15 19 11 4 7 3 1 9 12 9 13 11 6 9 11 7 7 4 4 8 11 15 9 13 9 8 8 8 10 12 15 15 15 14 9 12 13 13 15 11 14 13 12 15
14 9 3 7 6 10 10 12 10 13 15 9 11 10 8 7 7 8 10 15 11 9 10 10 11 6 7 7 8 11 14 16 17 8 9 11 9 9 10 12 15 16 14 15
4 8 6 5 5 5 10 15 7 6 6 9 14 13 11 8 8 9 11 9 9 11 9 10 11 12 9 7 8 8 11 7 6 7 10 9 8 10 8 10 12 12 15 16
8 7 3 3 6 8 9 6 5 6 6 9 11 16 10 10 10 12 9 10 10 13 13 14 14 12 8 7 7 8 10 4 6 11 11 7 7 8 7 8 10 9 11 13
5 2 2 4 6 7 6 6 5 6 11 10 16 15 11 8 11 8 10 8 9 8 8 11 11 10 8 6 6 9 9 5 8 11 10 7 6 6 5 7 8 8 9 11
6 5 5 4 6 7 8 10 13 13 7 14 16 13 8 8 6 11 9 9 5 3 8 9 11 10 5 8 9 9 7 4 7 7 7 8 6 6 5 6 7 7 7 9
7 7 7 8 12 10 11 13 16 16 17 15 15 8 11 9 8 6 5 4 5 5 8 11 12 11 11 11 9 6 6 5 7 6 7 6 6 6 5 4 5 5 6 8
5 7 8 12 18 16 14 19 18 17 16 15 11 9 11 9 6 3 3 0 2 6 10 10 11 12 13 13 5 3 5 6 7 6 6 5 5 4 4 2 3 5 5 7
11 13 16 18 20 21 11 13 15 16 21 16 11 11 13 10 7 8 6 1 1 6 7 9 10 10 11 10 6 4 4 8 6 6 5 4 3 3 4 2 1 4 4 4
14 13 18 21 19 22 23 16 17 21 20 17 10 11 10 8 4 3 1 2 4 6 7 8 9 10 11 9 6 4 6 7 8 6 5 4 4 4 3 2 1 2 2 4
20 21 22 22 21 21 20 16 18 18 16 16 12 12 10 9 6 3 2 2 6 7 7 8 10 10 13 7 4 6 7 7 9 8 6 4 4 3 3 2 1 1 0 1
21 23 23 28 26 15 11 19 20 16 17 14 10 10 10 7 3 3 3 6 7 7 6 8 8 7 9 8 6 7 8 10 10 8 7 6 4 4 4 3 2 1 1 1
23 26 24 23 16 15 20 20 14 14 13 11 11 10 8 5 3 3 4 6 5 4 6 7 8 7 7 8 8 8 9 9 9 7 7 6 5 4 4 3 3 2 1 1
21 19 19 22 23 23 19 14 12 14 13 13 13 12 11 8 5 3 4 4 4 5 5 7 7 8 9 9 7 8 9 10 10 9 8 6 6 5 5 4 4 3 3 2
22 23 22 21 22 21 22 17 11 12 14 16 13 14 13 6 4 5 5 6 6 5 6 8 7 8 10 10 11 11 8 8 10 10 8 8 9 8 7 7 5 4 3 4

GFSNGP_925_spd_006.txt.gz
Wind_Speed
5 8 7 11 11 7 8 8 6 15 9 11 9 7 6 7 7 8 9 8 8 7 12 17 18 21 17 18 23 19 13 13 12 10 11 11 15 17 20 23 22 20 19 21
4 3 4 8 12 10 9 7 11 14 15 10 4 2 6 9 11 10 8 8 8 8 12 14 18 17 20 22 19 12 11 12 13 14 13 12 15 15 16 19 21 24 21 18
5 3 8 8 6 5 4 5 6 6 11 2 2 6 9 11 8 7 5 6 8 10 16 19 19 19 19 15 12 8 10 13 17 18 17 17 16 15 15 15 14 14 16 16
3 4 2 8 2 6 7 8 10 7 6 4 6 7 8 7 5 4 6 7 9 15 18 20 23 20 10 6 6 7 6 7 12 15 16 14 14 15 15 13 15 16 15 13
3 3 5 9 8 1 4 7 3 2 4 4 7 6 5 9 8 7 8 19 21 15 18 25 24 8 1 1 1 3 10 11 13 12 13 15 16 14 13 14 15 13 11 15
1 4 5 7 3 1 2 6 0 1 12 18 8 9 8 7 5 7 18 20 19 16 22 24 16 8 11 9 8 8 11 11 11 13 14 14 13 14 15 13 9 14 19 20
7 5 8 8 5 1 2 3 4 4 13 8 5 3 5 6 8 14 18 17 15 18 19 17 13 13 12 10 11 10 11 11 13 14 13 12 14 13 13 11 15 19 20 20
2 3 8 3 1 1 7 1 8 10 1 0 6 4 5 9 11 17 16 18 17 17 16 14 15 11 11 14 17 12 9 11 12 13 13 12 11 12 14 13 18 21 22 24
7 6 5 4 7 10 5 7 5 2 7 6 2 5 10 10 10 17 18 18 17 14 14 16 13 12 14 18 15 10 9 10 11 13 12 10 10 14 15 16 19 21 18 20
3 6 7 12 13 6 6 6 9 7 3 2 7 10 12 11 9 13 18 18 16 13 15 16 15 14 17 16 10 10 10 10 11 12 11 10 12 13 14 17 19 17 19 19
6 14 10 8 5 6 6 5 1 5 7 8 7 10 8 8 9 17 19 22 18 14 17 16 18 19 19 13 12 13 12 10 10 12 13 14 14 13 15 13 15 18 21 22
13 9 6 8 3 3 4 4 3 9 7 9 7 8 10 10 16 19 21 25 18 14 16 20 17 16 17 11 12 14 13 11 11 14 14 12 12 16 13 14 15 15 16 18
7 6 4 2 4 6 4 6 8 8 12 8 12 10 15 14 16 22 22 19 15 14 15 12 12 13 10 9 10 9 10 9 10 10 11 14 15 17 17 19 15 17 17 17
4 3 2 3 3 2 6 11 14 15 17 16 14 22 19 15 21 20 20 21 17 15 11 9 10 10 10 11 11 9 7 8 9 9 11 14 15 13 15 16 18 22 20 18
4 5 5 8 4 6 10 11 7 8 10 14 18 16 17 16 16 21 25 18 17 13 8 9 8 8 10 10 9 8 8 11 7 8 11 13 12 13 14 14 15 18 20 22
7 7 7 7 4 5 6 8 6 8 9 14 15 17 17 18 22 23 23 17 11 11 6 6 7 10 10 10 9 7 8 9 6 8 12 12 13 13 14 14 15 16 17 18
6 5 1 3 6 7 7 8 10 11 13 14 20 20 17 16 22 19 18 13 11 6 2 6 6 8 9 9 10 9 10 8 6 10 10 11 13 13 14 14 14 14 14 15
3 2 7 7 7 7 7 10 18 20 16 19 23 23 16 14 17 21 15 9 7 4 3 2 7 9 10 11 10 10 9 6 8 10 10 11 12 13 13 13 12 13 14 14
8 8 14 15 18 16 16 18 22 26 28 19 16 16 17 19 23 19 11 8 6 4 2 6 8 9 10 11 12 10 7 5 7 9 11 11 11 12 12 12 12 11 12 12
13 17 17 19 22 22 19 25 26 26 27 22 19 18 19 20 19 9 8 9 7 6 4 6 8 10 10 10 10 9 8 6 8 9 11 11 11 11 11 11 11 10 11 10
14 17 19 20 22 27 26 25 23 24 28 24 17 19 20 19 14 8 7 8 10 6 6 9 9 10 10 11 13 12 11 8 10 11 12 12 11 11 11 10 10 10 10 10
16 16 20 23 22 25 29 27 27 27 28 23 19 18 18 19 12 10 10 11 9 6 8 10 10 10 11 11 15 9 8 9 10 10 13 13 11 11 10 10 10 9 10 9
20 20 20 21 22 23 30 29 26 25 27 26 21 19 17 18 13 11 5 5 7 8 9 9 8 10 10 8 11 9 11 11 11 12 15 14 11 12 10 10 10 9 10 9
21 23 23 24 23 22 16 24 26 25 24 24 20 20 18 14 14 12 10 8 6 8 9 8 8 10 11 10 9 10 10 11 13 12 14 12 11 10 11 10 10 9 9 8
22 23 23 19 16 14 20 23 23 21 21 22 17 20 14 14 12 6 5 5 7 8 6 7 8 9 11 10 12 14 13 12 12 12 13 13 11 10 9 10 9 8 8 7
20 18 19 22 21 22 26 24 18 19 17 16 18 18 12 13 11 10 7 5 5 5 7 9 9 9 10 10 11 12 12 12 14 13 12 13 13 12 12 11 10 9 8 7
20 19 19 19 19 20 19 18 19 18 18 16 16 15 10 13 14 15 10 7 6 7 9 9 9 10 10 9 10 11 13 13 12 12 13 12 12 13 13 13 12 11 9 9

GFSNGP_925_spd_009.txt.gz
Wind_Speed
4 8 5 10 12 11 12 12 7 13 15 19 15 11 7 6 11 13 13 10 9 9 10 12 14 14 13 15 16 12 8 8 9 9 8 12 11 13 13 13 14 14 14 13
3 5 4 8 14 12 13 13 13 18 20 17 11 3 5 11 12 12 9 6 7 9 11 11 14 15 16 15 10 9 6 5 5 7 10 13 14 15 14 14 14 14 15 15
3 5 8 7 4 4 3 5 4 6 8 5 4 4 13 15 11 5 4 5 9 11 12 13 15 16 18 14 10 6 3 6 8 11 12 11 12 14 15 14 13 14 13 12
2 4 1 3 2 5 7 13 8 8 6 5 8 14 11 8 5 5 7 9 11 14 16 15 16 18 15 7 7 6 6 8 10 11 11 12 14 14 13 13 14 13 11 11
2 3 6 11 6 2 4 7 3 4 8 12 16 12 2 5 4 2 10 17 15 16 15 14 16 14 8 9 8 9 9 10 10 10 12 12 12 13 13 13 12 11 13 15
2 3 5 4 1 2 3 6 3 8 15 21 13 12 6 3 8 15 17 17 19 17 13 13 14 12 11 14 11 12 9 10 10 11 11 11 12 12 11 11 11 13 15 15
6 5 8 6 4 2 2 3 4 9 14 9 5 2 4 7 15 17 20 22 21 15 13 13 14 13 12 9 10 11 12 11 11 10 11 10 11 10 11 13 11 15 16 16
2 4 7 2 2 1 3 6 9 9 5 7 6 6 7 11 13 19 21 22 20 14 16 16 14 12 11 12 12 12 13 11 9 10 11 11 11 11 12 12 13 15 16 17
7 6 2 3 8 3 2 2 4 3 1 4 1 7 11 10 14 18 19 20 17 16 18 17 14 11 13 16 15 14 11 9 8 10 11 11 11 12 13 13 13 16 18 20
1 7 12 9 3 4 2 3 3 2 2 5 8 10 13 12 12 16 19 19 20 18 18 18 14 14 14 16 15 12 10 8 7 8 11 12 11 11 11 13 14 16 18 19
6 15 10 2 2 3 4 4 3 6 7 8 10 12 12 10 14 16 17 20 20 19 18 16 15 16 14 14 14 10 10 8 7 7 9 11 9 9 10 9 11 16 17 18
6 8 4 5 4 2 5 3 1 5 8 12 12 11 13 15 16 15 18 20 22 21 17 15 14 13 12 10 9 9 9 6 5 7 7 8 10 11 9 10 12 12 13 14
7 2 1 4 6 6 1 2 4 7 10 10 15 10 13 16 15 18 18 20 21 19 16 14 11 10 10 11 10 8 6 6 6 7 6 8 11 11 12 12 12 13 14 14
1 4 5 3 4 3 5 7 9 11 12 11 13 15 14 15 16 16 18 21 20 18 14 8 9 7 9 10 10 9 6 6 8 5 6 9 9 10 9 11 13 14 15 15
7 8 8 10 5 3 6 8 9 9 11 14 14 14 15 17 17 18 19 19 18 15 7 7 7 7 8 9 9 8 8 7 7 5 8 10 9 9 8 10 12 12 14 14
9 9 5 1 5 7 8 9 9 10 12 15 16 19 16 15 17 19 19 17 15 12 9 5 5 8 8 8 8 8 8 8 6 6 8 8 9 9 10 11 11 12 13 14
4 1 3 5 7 8 9 12 12 15 18 18 19 20 20 19 17 16 19 20 14 11 7 5 4 7 8 8 9 8 8 7 5 6 8 8 8 9 9 9 10 10 11 11
3 2 5 6 8 9 10 13 15 18 17 21 27 20 17 13 16 19 20 18 11 8 7 3 4 7 8 9 10 11 8 6 6 7 9 8 8 8 8 8 9 9 10 10
4 5 9 9 11 12 13 15 19 24 27 27 24 19 19 19 19 18 20 13 10 7 5 2 5 6 8 8 9 10 6 5 5 7 9 9 8 8 8 8 8 8 8 9
9 12 13 16 19 18 17 23 25 23 26 24 25 20 18 20 16 17 17 14 13 8 4 3 6 7 7 8 9 10 10 10 7 7 9 10 8 7 8 9 9 7 7 7
12 13 15 17 19 23 22 23 23 23 27 25 22 20 20 20 19 17 10 11 10 7 10 5 8 8 8 8 9 12 8 7 6 7 8 9 11 7 8 8 8 7 7 6
12 12 18 21 20 22 24 24 23 24 25 26 26 22 20 19 17 17 15 14 10 6 7 7 8 6 7 7 7 9 6 6 7 7 8 10 10 8 8 8 8 7 7 7
16 17 19 20 19 20 25 24 24 24 26 25 23 21 19 17 16 9 6 6 7 8 8 6 6 5 7 9 6 7 7 7 7 8 9 11 10 9 9 9 8 8 8 7
19 20 19 21 21 20 15 21 26 24 23 25 25 23 19 16 15 11 11 9 7 7 9 8 6 5 8 8 7 8 10 8 8 8 10 11 11 10 10 9 9 9 8 7
19 19 19 18 16 15 17 23 21 20 21 21 22 24 20 17 10 5 2 5 6 9 10 7 6 7 8 8 7 8 10 10 10 11 11 10 11 11 11 10 10 9 9 8
16 13 13 14 15 19 20 17 18 19 20 21 20 19 19 10 8 8 9 8 7 5 5 7 8 7 7 8 7 7 9 10 11 11 11 12 11 11 12 11 11 11 10 9
18 16 17 16 14 16 19 18 17 18 19 20 21 19 14 9 10 12 15 14 10 7 7 7 9 9 8 8 7 7 9 10 10 11 10 10 11 12 12 12 12 11 11 10

GFSNGP_925_spd_012.txt.gz
Wind_Speed
7 10 13 12 13 12 15 16 11 16 16 16 15 14 11 4 11 15 12 10 10 10 13 14 12 14 14 18 18 15 14 16 14 9 10 12 15 16 16 16 16 16 15 14
3 7 11 13 16 15 13 14 14 16 16 7 9 7 5 12 14 12 8 8 9 14 13 12 15 14 17 20 19 13 15 12 8 10 12 14 14 16 17 17 16 15 15 15
3 8 13 6 3 2 4 4 8 11 10 7 6 9 12 14 10 5 6 10 12 12 14 16 16 15 19 19 15 14 14 10 9 12 13 14 16 17 16 16 15 16 16 14
2 4 3 3 6 9 13 14 9 10 4 6 8 15 14 4 4 2 9 12 13 16 18 19 16 18 18 19 16 15 15 12 11 12 12 15 16 15 16 16 16 16 15 16
2 4 14 12 4 3 3 13 4 4 9 15 19 16 7 4 3 9 12 17 18 20 22 21 17 19 19 19 18 17 15 13 12 11 12 14 14 15 16 16 16 16 16 18
3 3 4 4 4 4 3 9 2 9 16 19 18 8 2 7 12 12 16 18 20 22 23 20 19 21 20 21 19 16 14 13 12 11 11 13 14 15 15 16 17 16 17 18
6 6 7 5 3 2 4 4 11 9 10 6 1 5 10 11 12 14 17 19 20 22 22 22 22 23 21 21 17 15 12 11 12 11 11 12 14 15 16 17 17 13 15 17
2 4 6 2 3 4 7 9 3 3 1 2 6 6 7 10 13 17 18 20 22 23 24 25 24 22 22 21 18 14 15 15 12 10 10 12 14 16 17 18 16 14 16 16
7 6 4 10 14 8 5 4 3 4 5 4 6 9 11 12 14 18 19 21 23 23 25 25 25 22 21 22 17 15 14 14 12 10 11 12 14 17 17 16 14 14 17 18
5 11 13 10 13 3 1 3 3 2 2 4 9 11 13 13 17 19 21 22 21 23 24 25 24 20 18 16 16 14 16 13 12 11 11 14 14 14 14 13 11 15 17 18
13 15 14 6 6 5 3 3 4 4 4 7 10 13 15 15 19 20 21 20 20 21 24 25 22 19 19 12 12 15 13 12 10 9 10 12 12 11 11 10 9 13 15 17
5 7 5 5 2 3 5 4 1 5 7 9 13 14 19 18 21 21 21 20 21 24 25 25 21 18 11 11 11 11 10 8 7 8 8 9 11 12 8 7 9 8 9 11
8 3 2 1 6 8 3 2 5 8 12 13 18 16 18 20 20 22 21 22 22 22 24 22 17 11 10 9 9 7 7 6 6 6 7 8 10 11 12 10 8 8 9 11
1 5 5 5 3 3 1 6 10 14 17 17 17 18 20 22 24 23 22 23 21 21 22 15 10 9 8 8 8 8 7 7 6 6 5 8 9 9 10 11 13 12 10 10
7 3 8 8 3 3 7 11 12 13 18 19 19 20 22 23 23 23 22 20 19 20 18 12 8 7 6 6 6 7 7 6 6 4 5 8 7 9 9 11 12 12 12 11
10 8 5 1 5 7 10 12 13 14 18 21 22 22 22 22 22 21 18 16 15 16 13 9 6 5 5 6 7 7 6 5 3 4 7 7 7 8 10 10 11 11 11 11
5 1 3 6 8 10 11 13 14 16 20 21 21 21 23 20 17 17 17 16 14 14 11 8 5 5 5 6 6 7 6 5 4 5 6 7 7 7 9 9 9 9 9 8
3 3 4 7 8 9 11 15 15 16 18 22 24 20 18 15 18 20 19 17 15 11 8 6 5 5 6 6 6 8 6 5 5 5 6 7 7 7 7 8 8 8 8 7
3 5 8 8 10 12 14 16 17 19 21 20 19 20 20 21 21 21 18 15 12 10 6 6 3 5 6 5 6 6 6 5 6 5 5 7 7 7 7 7 8 7 7 7
8 9 9 10 12 12 14 18 18 19 18 18 20 19 19 19 22 21 19 14 15 10 6 6 4 7 7 7 6 7 8 8 7 6 5 8 8 8 8 6 6 7 7 6
10 10 10 13 14 17 18 18 18 17 21 21 18 19 20 23 22 21 14 12 7 6 10 11 6 7 7 6 7 7 7 6 6 7 6 8 9 9 8 7 7 7 6 6
10 10 13 16 15 16 17 16 15 20 20 20 19 18 18 19 18 18 16 15 7 6 7 9 8 8 7 8 7 5 6 7 7 7 8 7 9 8 8 8 7 7 6 6
12 12 14 15 14 16 21 21 19 17 17 17 18 19 19 20 20 15 13 6 6 7 7 9 8 8 7 8 9 8 6 6 6 6 7 7 8 8 8 8 7 7 6 6
13 12 14 14 14 13 16 18 16 15 15 19 19 23 24 22 19 15 10 10 8 8 8 10 10 10 9 9 7 8 8 9 10 10 9 8 8 7 7 7 7 7 7 6
15 14 13 12 11 14 15 17 17 16 18 18 19 21 21 21 16 13 8 7 8 9 9 11 11 10 9 8 7 7 8 7 8 8 9 10 10 8 8 8 7 7 7 7
14 13 13 12 14 15 15 16 16 19 17 18 20 19 24 20 17 12 12 13 11 11 9 8 9 10 10 8 8 8 7 7 8 8 8 9 9 10 9 9 9 8 8 8
15 13 11 11 12 14 15 17 18 18 16 17 21 21 21 21 17 13 15 17 17 14 12 11 10 9 10 10 9 8 7 7 7 7 8 7 7 8 9 10 10 9 9 8

GFSNGP_925_spd_015.txt.gz
Wind_Speed
9 11 11 12 13 14 15 15 14 16 17 16 12 11 11 7 10 12 13 13 12 13 15 14 13 15 17 16 19 21 20 20 20 16 14 15 16 17 18 19 20 19 19 19
4 7 11 15 17 18 16 11 13 14 13 9 9 8 9 14 15 13 10 10 14 13 15 16 16 19 16 18 19 19 20 21 19 14 13 15 16 17 18 19 19 18 19 20
4 10 13 6 3 3 7 8 8 10 12 7 10 13 13 11 9 8 5 11 13 14 16 18 19 20 19 19 21 22 22 21 17 14 14 16 17 17 18 18 19 19 20 19
3 5 3 6 11 14 10 9 10 9 9 10 12 12 9 5 8 6 11 12 14 17 19 21 24 25 22 23 24 26 25 20 16 15 16 17 17 17 17 19 19 20 20 18
2 5 14 12 4 6 9 13 11 6 9 14 17 13 0 3 6 11 10 16 17 19 21 25 26 28 27 25 27 28 25 21 14 16 18 16 16 16 18 19 19 20 18 18
3 3 4 3 2 4 6 11 5 7 14 15 13 10 7 13 13 13 16 18 20 22 25 25 27 28 30 30 30 28 25 19 16 17 16 14 14 17 17 20 20 18 16 19
6 5 8 8 3 4 5 3 10 10 10 6 7 5 11 12 12 16 17 21 22 24 24 26 27 29 29 31 29 28 24 16 16 15 15 13 14 17 19 21 19 12 14 17
4 4 6 3 6 3 7 15 8 3 3 9 8 10 9 10 13 17 20 23 25 25 25 26 27 28 30 31 31 28 21 15 13 12 11 14 15 18 18 20 16 15 16 18
8 5 9 6 10 6 5 6 3 1 6 9 8 9 11 12 14 20 24 26 26 25 25 25 27 28 29 29 25 24 22 15 13 11 12 14 15 17 18 16 13 14 17 19
8 7 12 12 9 5 5 1 4 3 11 6 9 10 13 14 17 22 25 26 25 24 24 26 27 30 27 23 20 17 18 17 14 13 9 14 14 16 13 13 12 15 18 19
13 17 13 8 6 8 4 2 5 8 6 8 10 13 16 16 21 23 25 24 25 24 24 25 28 27 24 17 14 18 16 16 14 12 11 12 14 11 12 9 6 12 14 15
10 10 2 5 4 6 4 6 2 5 8 10 15 16 22 20 23 24 24 27 26 26 26 26 26 22 17 12 14 14 15 13 12 10 10 9 11 12 11 10 11 11 9 9
9 4 2 2 3 5 3 1 4 8 12 13 20 21 22 21 24 24 26 26 26 28 25 23 22 16 11 12 10 11 11 11 10 8 7 8 9 10 12 9 12 9 8 8
3 4 3 6 2 2 1 4 7 12 16 19 21 22 23 24 26 26 25 25 24 23 22 22 17 11 10 10 10 9 10 10 8 8 5 7 8 9 10 10 13 12 8 10
3 2 4 8 5 4 4 9 11 12 17 18 19 21 22 23 25 26 26 24 20 19 21 18 14 10 10 8 8 8 9 8 7 6 6 7 8 8 9 10 12 12 13 11
7 8 7 2 2 5 8 10 12 13 16 19 19 20 22 25 26 26 24 19 14 17 18 17 13 9 8 9 10 10 8 7 7 6 7 7 7 7 8 9 11 12 12 12
8 5 2 3 5 7 9 11 13 15 17 18 20 22 23 21 20 21 22 22 21 19 19 15 13 10 8 9 8 10 8 7 7 8 7 7 8 8 8 9 10 11 10 5
5 3 1 4 6 8 9 12 13 14 16 19 23 20 18 18 19 22 23 24 20 19 18 14 11 9 9 9 8 9 8 9 7 8 7 7 7 9 8 9 9 10 10 8
1 2 5 6 8 8 11 13 14 15 19 17 17 19 20 20 20 22 23 22 19 18 14 12 11 8 7 8 8 9 8 8 9 10 8 7 9 9 9 9 9 10 9 9
4 6 7 9 8 9 12 15 16 16 16 16 19 18 20 19 20 21 22 21 21 19 10 9 10 8 7 9 9 8 8 10 11 10 10 8 9 9 9 9 9 9 9 8
7 9 8 9 11 13 18 18 18 17 18 17 18 18 20 21 19 22 21 17 18 12 10 12 12 9 9 8 7 10 8 9 9 10 10 9 9 10 10 9 9 9 8 7
8 9 11 14 14 14 13 14 13 20 21 19 16 16 19 20 19 20 20 21 18 12 7 10 11 11 10 8 10 10 9 9 10 10 10 10 9 9 9 9 9 9 8 8
12 13 12 13 15 15 15 18 19 16 17 18 17 19 18 19 20 19 17 17 13 11 10 12 12 13 12 11 11 12 13 11 10 11 10 10 9 9 9 9 9 9 9 9
14 13 14 14 14 13 13 15 12 14 16 19 20 18 19 19 20 19 16 15 14 13 12 13 13 13 13 13 13 13 13 14 13 13 13 14 13 11 10 10 10 10 9 10
14 14 14 13 12 13 14 16 15 15 15 18 18 16 17 18 19 25 23 17 14 14 14 14 14 15 14 15 15 14 13 13 13 12 11 13 13 13 12 11 11 11 10 10
15 15 16 16 16 15 14 15 16 16 17 19 19 18 19 22 22 22 22 17 17 17 16 16 16 13 14 16 16 15 14 13 12 12 12 12 12 13 13 12 12 13 12 11
16 17 16 16 15 15 14 14 13 17 17 19 22 22 21 22 22 23 21 20 19 20 21 21 18 17 16 15 17 15 15 14 13 12 12 12 12 12 12 12 12 13 12 12

GFSNGP_925_spd_018.txt.gz
Wind_Speed
7 8 7 10 12 13 13 12 9 11 14 11 10 8 11 13 12 11 12 10 12 11 13 15 16 15 17 17 15 17 18 17 18 19 11 7 9 13 16 19 17 17 19 20
3 3 10 13 15 12 12 11 10 11 13 8 12 13 12 12 12 12 11 12 11 13 15 15 17 19 19 21 19 17 20 21 25 12 11 10 9 13 15 16 16 18 18 19
2 9 9 2 2 7 9 11 9 6 8 12 8 10 12 10 10 9 9 11 12 13 17 16 18 21 24 24 24 17 22 22 18 17 15 13 10 10 14 13 17 16 18 17
2 5 2 5 12 7 7 8 8 10 8 5 11 13 15 10 7 8 11 11 12 16 15 17 21 23 23 25 28 30 27 28 17 15 16 14 9 9 11 12 16 18 16 11
1 3 9 8 4 3 5 10 9 7 10 12 15 13 3 5 10 10 11 14 14 18 19 21 20 22 25 28 29 28 28 29 26 19 12 13 9 11 10 14 17 13 14 14
2 2 3 2 5 4 7 7 9 7 8 9 11 6 6 13 13 13 16 17 20 21 22 20 21 24 24 24 27 29 23 22 24 23 16 9 7 13 13 16 13 12 13 14
5 4 6 8 4 2 3 2 10 7 6 7 6 4 7 10 11 16 18 21 23 23 21 20 22 23 22 24 25 23 26 24 22 20 12 7 6 12 13 13 13 11 14 18
3 4 6 1 1 1 6 11 7 4 4 4 4 9 9 10 12 17 19 22 23 24 22 22 22 22 21 22 22 24 24 23 20 20 15 11 12 14 14 12 10 13 16 19
9 5 7 3 4 4 1 2 4 4 1 4 8 8 9 10 12 17 21 23 25 22 23 25 22 21 20 20 22 20 19 20 18 16 16 14 11 13 13 10 11 12 15 17
3 7 8 7 5 9 7 5 2 2 5 9 7 8 10 10 13 17 20 22 22 24 24 21 22 19 20 20 19 15 18 18 18 18 13 13 12 15 12 12 9 11 13 14
8 12 9 2 7 6 4 6 2 8 5 6 7 9 12 11 15 17 20 19 24 22 20 24 25 21 21 18 12 15 16 17 17 15 15 13 13 9 8 10 10 10 11 11
6 5 1 3 5 4 7 4 8 2 5 8 12 10 16 15 19 20 20 23 22 23 23 22 23 22 18 12 10 13 14 15 15 15 15 12 12 12 14 15 12 14 12 11
4 8 9 7 3 4 6 7 2 4 7 9 13 17 17 17 18 23 22 23 23 22 21 22 21 19 15 9 9 10 11 13 13 12 9 9 10 11 12 14 13 14 11 10
5 7 4 3 4 5 3 3 2 6 10 14 15 15 17 17 20 20 22 23 24 21 18 21 20 18 9 8 7 10 9 10 10 8 8 10 11 13 12 12 14 14 11 9
4 3 5 8 7 7 3 3 5 7 11 11 14 15 16 17 20 21 22 23 21 19 20 20 18 19 16 11 10 13 12 8 8 11 10 10 11 11 11 12 13 14 12 8
6 7 10 8 4 2 3 5 6 8 10 12 12 12 15 19 19 20 19 20 22 22 22 20 21 20 13 11 12 13 12 8 12 10 10 10 8 10 11 11 11 13 12 7
8 8 6 2 1 3 5 7 8 10 10 12 11 14 16 17 17 18 19 20 23 26 24 22 21 15 12 10 12 12 12 6 10 11 12 9 10 11 10 10 11 12 12 10
6 8 6 2 3 4 4 7 6 8 9 12 19 17 17 15 15 20 21 23 24 24 23 22 18 13 11 10 11 10 11 12 12 11 11 10 9 11 14 13 12 11 10 11
7 5 3 3 5 5 4 7 8 12 17 16 17 17 17 19 17 19 20 21 22 20 20 15 15 13 11 9 9 10 11 11 12 13 14 13 11 11 13 12 13 10 12 11
4 4 5 5 5 6 8 12 14 14 16 15 17 19 16 15 18 20 21 22 24 24 18 18 11 13 10 9 10 9 10 12 13 14 14 13 12 12 10 13 14 13 11 11
4 5 5 5 9 10 13 16 15 16 17 17 17 16 17 19 20 20 19 17 22 20 17 12 13 14 12 14 12 11 12 13 12 13 13 12 12 12 11 10 13 13 11 10
4 6 7 9 11 14 15 16 15 16 20 18 13 17 18 18 20 20 21 24 23 17 17 12 11 13 13 13 10 12 14 14 13 13 14 14 13 11 10 11 13 13 12 11
9 11 12 12 13 16 15 17 22 19 16 14 16 18 19 19 20 17 18 20 17 18 17 14 14 14 14 16 16 16 15 16 16 15 15 16 15 15 13 14 14 14 14 13
12 13 14 14 14 16 14 18 17 16 16 19 16 20 23 19 18 18 19 26 24 22 18 16 16 15 16 17 18 16 16 17 16 17 17 16 17 17 17 16 14 14 14 14
14 15 15 16 15 15 18 21 13 13 11 10 18 22 20 19 20 24 24 26 24 21 19 18 18 18 19 21 20 18 19 18 17 16 16 15 17 17 16 15 16 15 15 15
15 13 14 15 17 18 19 17 14 15 10 13 16 19 21 22 23 24 24 24 23 22 21 21 22 22 23 24 20 19 20 20 17 17 17 16 16 18 19 18 17 15 16 17
15 15 15 15 16 18 19 19 17 11 9 15 19 19 18 23 23 23 23 23 23 21 22 23 24 25 25 25 23 22 20 20 19 18 17 16 17 18 18 18 17 17 16 16

GFSNGP_925_spd_021.txt.gz
Wind_Speed
4 5 4 3 5 7 5 5 4 7 4 8 7 8 7 6 6 9 9 9 8 6 14 16 13 16 17 22 25 27 11 23 25 24 20 12 17 21 15 9 9 5 9 11
1 6 7 4 7 8 8 2 3 5 4 7 6 7 8 5 7 8 7 5 5 8 13 15 15 15 21 20 22 21 25 27 29 26 15 23 22 11 11 9 2 10 11 12
2 4 5 4 4 5 4 3 3 3 1 7 10 9 7 7 6 5 5 5 6 10 16 18 15 17 17 19 22 23 27 20 25 25 19 15 14 14 14 5 6 11 13 6
2 4 2 5 2 5 6 4 6 8 9 11 6 6 7 6 5 6 6 6 9 16 17 17 12 16 18 18 20 23 18 21 22 22 21 17 12 10 3 8 11 11 6 7
3 1 6 5 3 4 4 3 6 6 6 7 4 5 4 4 3 3 6 12 10 16 15 13 15 18 17 18 19 19 16 17 19 20 19 16 9 8 5 9 6 6 9 12
2 4 6 6 5 5 1 3 4 6 6 4 5 2 4 6 6 8 7 14 14 16 18 17 20 20 18 17 16 15 17 17 16 18 16 15 8 4 8 6 5 7 9 15
3 3 7 8 5 4 5 6 2 6 5 3 1 4 5 7 7 7 13 13 16 19 15 18 24 27 20 12 14 15 15 17 19 19 19 11 13 15 12 3 6 8 13 13
3 3 7 7 4 8 6 4 6 6 4 3 2 5 5 3 6 10 10 14 16 15 19 24 27 19 13 14 14 16 15 17 19 19 20 16 13 10 6 6 8 12 14 15
8 6 7 4 6 4 4 6 4 6 5 4 5 4 3 4 6 8 10 14 11 18 21 22 17 13 12 12 15 12 14 16 17 19 17 13 15 10 8 9 11 11 13 15
4 6 6 6 6 6 7 7 7 5 5 4 3 3 4 4 7 12 15 15 19 20 16 16 14 12 13 14 11 10 12 15 16 15 14 13 13 10 11 14 14 13 14 14
3 3 4 8 9 8 8 7 5 5 4 3 4 4 5 5 9 12 15 18 19 20 19 15 16 19 18 17 13 8 12 13 13 15 14 12 9 9 14 14 14 14 14 12
5 4 4 4 6 8 7 5 6 4 5 5 11 6 10 7 12 16 17 20 20 21 19 14 19 22 21 13 9 9 9 11 13 14 13 9 10 11 13 14 14 14 13 11
4 4 8 8 6 7 6 7 6 7 6 6 12 11 11 9 13 16 19 20 18 20 19 17 19 20 13 13 11 7 9 10 10 12 9 10 12 14 16 15 13 14 13 10
11 9 5 5 4 8 7 10 8 13 15 13 11 10 10 10 13 17 17 19 22 19 23 23 22 18 18 22 12 11 12 11 8 8 12 12 10 12 12 14 15 16 12 8
7 6 5 7 6 7 7 12 8 7 9 9 8 7 8 11 14 16 19 21 18 23 20 22 20 19 17 17 12 12 13 14 10 8 10 11 11 10 12 13 13 13 13 7
7 8 8 6 4 7 7 8 7 5 6 5 5 7 9 15 16 19 19 17 21 22 27 27 23 21 18 13 11 12 13 13 8 11 11 10 11 9 13 12 12 14 13 11
8 8 6 7 7 7 7 8 6 2 4 5 8 10 15 15 17 18 21 21 21 21 26 25 25 20 17 14 12 12 10 6 8 11 12 12 11 11 10 14 16 15 13 11
15 13 12 9 6 6 5 4 2 4 6 8 14 13 15 16 16 20 18 22 23 22 21 23 21 19 16 12 12 13 13 12 10 12 13 13 14 14 11 14 14 14 12 12
18 13 14 12 7 5 2 2 4 8 13 13 13 14 15 16 15 17 20 21 21 23 23 26 21 22 16 13 12 11 11 12 12 12 13 15 15 14 15 14 13 14 15 15
14 12 8 4 2 2 5 7 9 12 14 12 11 13 12 14 16 18 21 20 20 24 26 26 24 21 15 13 12 13 14 12 12 13 14 15 15 16 16 14 13 13 14 15
4 2 2 3 7 8 9 10 12 13 14 12 12 13 16 19 19 20 17 16 23 25 27 18 22 20 16 15 14 17 18 17 15 15 14 15 15 15 15 16 11 12 13 13
1 2 5 8 10 11 11 12 13 14 15 16 16 14 15 19 22 22 18 20 27 23 26 22 23 18 17 16 17 14 15 16 17 17 17 16 16 15 14 12 13 13 14 12
5 7 8 9 11 13 14 14 18 20 21 17 17 16 15 20 23 19 17 19 21 24 28 27 23 20 19 19 19 19 21 21 20 19 20 19 18 18 18 18 17 15 14 14
8 9 11 12 12 13 15 22 21 20 19 21 21 17 16 20 24 20 22 23 26 24 25 25 23 20 20 21 23 21 22 21 20 20 20 20 19 18 17 16 18 20 18 14
13 13 13 15 14 17 20 20 20 22 18 19 15 10 12 16 18 24 25 25 27 28 26 24 23 21 22 23 24 25 26 24 23 22 21 19 18 18 18 19 18 16 17 19
12 14 16 16 17 20 23 25 23 26 24 17 11 13 16 16 20 22 22 23 23 23 25 25 23 24 25 26 27 28 29 28 24 23 23 21 19 19 18 17 18 18 17 15
15 14 14 16 20 23 23 20 16 17 13 12 16 17 16 18 21 21 22 21 22 21 22 25 26 25 25 27 27 30 30 28 25 23 21 21 19 18 17 16 16 16 16 16

GFSNGP_925_spd_024.txt.gz
Wind_Speed
2 4 2 1 2 2 4 5 5 6 6 4 5 7 5 7 7 6 5 5 5 5 7 9 9 9 9 10 13 14 15 12 14 18 19 18 18 21 20 18 13 14 10 11
1 5 6 3 5 5 4 3 4 6 3 4 5 4 4 6 6 5 4 4 4 5 7 11 13 7 9 12 12 12 12 10 12 15 17 18 19 22 17 13 6 9 11 10
3 4 5 5 6 3 1 3 4 5 5 5 3 5 5 5 5 4 1 4 5 7 11 9 9 9 9 9 10 10 3 8 15 21 24 23 21 18 12 5 2 9 9 1
2 3 1 5 5 5 6 3 8 9 7 6 5 4 5 4 4 4 4 4 6 9 9 8 8 10 9 10 7 3 7 12 16 19 21 19 19 13 5 2 4 4 2 5
3 3 5 2 4 5 6 5 6 9 8 5 7 5 2 3 2 2 3 6 7 9 6 6 9 13 13 9 4 6 10 13 15 15 17 18 14 9 4 8 1 1 4 8
3 4 6 5 3 6 5 4 7 8 8 6 6 2 3 5 2 4 3 6 7 6 5 10 15 17 12 4 6 8 10 12 13 13 14 13 12 11 11 4 3 3 7 9
2 2 7 7 4 4 5 7 7 8 7 7 5 5 3 1 1 0 6 7 6 7 11 15 12 8 6 5 7 10 10 10 12 12 14 14 9 8 6 4 4 5 8 10
3 2 8 7 4 7 6 4 6 6 6 6 5 4 3 5 3 7 8 9 8 12 14 11 8 9 3 7 11 11 8 9 12 13 10 10 4 4 8 4 4 6 8 9
9 6 5 6 5 4 7 6 7 7 5 6 6 4 5 4 7 9 10 9 10 12 11 12 5 6 9 13 11 8 7 8 9 8 9 11 5 4 5 5 7 6 9 10
3 5 8 6 2 3 3 5 6 5 6 6 3 4 6 5 6 8 8 9 11 11 13 11 6 9 13 15 13 9 7 9 8 9 10 7 2 5 7 8 9 9 10 11
4 3 3 3 2 6 6 7 7 7 6 5 8 6 6 4 6 6 6 9 12 12 14 11 12 14 17 16 10 8 8 8 10 7 8 5 1 3 8 10 10 10 12 10
6 6 4 5 7 7 7 6 6 6 8 9 11 6 7 6 4 5 9 13 13 16 18 15 17 21 16 11 12 12 12 8 8 6 7 5 3 7 9 9 9 9 10 8
5 3 2 7 8 7 6 6 7 10 14 8 10 10 7 3 5 10 13 13 16 18 14 20 20 22 16 15 17 18 12 11 9 5 5 7 5 10 11 10 9 9 10 8
8 10 4 4 5 8 9 11 19 18 16 12 10 7 5 5 8 13 13 14 17 16 21 19 21 22 18 16 17 16 12 12 13 8 6 10 9 8 8 10 13 12 11 7
8 2 5 7 9 7 17 16 9 7 8 7 6 6 5 6 11 14 14 16 17 19 19 19 21 24 19 16 17 15 12 13 12 11 7 9 10 11 7 11 12 10 12 10
7 7 9 10 11 10 10 7 8 5 4 4 4 4 5 10 12 14 15 14 16 17 21 20 25 22 19 16 15 14 12 15 11 9 11 11 11 12 10 10 10 13 13 12
12 8 9 10 10 6 7 7 8 5 3 1 5 5 11 11 13 15 14 14 17 20 20 21 23 24 20 18 15 13 12 9 9 10 12 11 10 14 13 11 12 13 13 12
12 14 12 10 8 7 5 7 4 2 2 3 7 9 10 11 12 16 15 17 20 19 19 19 20 23 21 21 17 13 14 15 14 12 12 12 13 14 15 15 14 14 12 10
20 16 14 13 10 7 5 2 2 3 6 9 9 10 9 12 13 15 16 17 19 19 22 23 23 19 22 22 15 12 13 13 14 14 13 13 16 15 15 16 16 14 12 12
15 15 12 7 4 1 2 4 5 8 11 10 9 9 12 14 13 15 18 22 23 22 23 21 22 18 22 20 13 14 15 17 18 18 17 17 17 15 15 16 17 16 13 10
9 8 5 1 2 4 6 8 10 12 13 11 12 16 16 16 14 15 19 16 26 19 20 20 25 24 22 20 16 17 17 20 22 22 22 22 19 16 17 16 14 15 10 10
4 3 4 5 7 9 11 11 12 15 16 17 18 19 18 19 18 19 19 21 26 19 19 22 25 25 22 21 21 22 21 22 22 22 24 22 22 20 19 17 15 15 15 13
4 4 6 8 10 11 13 14 15 17 18 19 20 20 21 24 19 17 16 20 22 24 27 27 25 24 22 21 21 23 25 25 26 26 26 23 24 23 22 21 20 17 17 19
6 7 8 10 10 11 12 17 17 18 20 21 22 23 25 25 20 17 18 21 21 22 24 23 25 24 24 23 24 24 24 26 30 30 28 24 24 24 22 20 18 16 16 15
8 8 10 12 11 14 16 19 20 23 22 22 23 23 21 11 13 19 19 19 20 22 20 20 21 25 25 24 25 27 27 28 29 29 30 27 24 24 23 20 18 18 17 16
13 14 14 13 14 16 18 19 19 19 15 18 19 14 12 16 15 16 17 17 16 17 19 21 23 23 23 24 26 24 26 30 30 30 30 29 25 23 23 20 19 17 17 16
15 16 17 17 19 24 23 21 18 16 18 21 22 20 18 17 14 15 15 11 13 16 20 22 21 22 24 25 26 26 26 26 29 30 29 28 25 20 20 18 16 15 14 13

GFSNGP_925_spd_030.txt.gz
Wind_Speed
1 3 1 2 5 6 7 5 6 5 7 7 9 10 7 7 8 7 7 5 4 2 3 2 2 3 4 2 3 5 8 7 5 8 13 19 23 22 22 18 12 12 11 7
2 4 5 3 5 6 5 3 7 3 9 7 2 7 7 8 8 7 6 6 6 5 2 4 4 5 2 4 7 9 10 6 6 11 17 20 20 20 18 13 11 7 5 6
4 4 5 6 9 11 6 5 7 7 9 6 4 7 8 8 8 8 7 6 6 5 4 6 6 1 3 8 11 11 7 5 10 15 18 17 17 16 11 7 6 8 8 1
2 3 2 6 2 4 9 5 8 2 4 7 4 3 5 5 8 7 7 6 5 5 6 7 4 3 7 10 11 8 4 9 13 15 16 16 16 13 12 8 8 9 2 1
4 3 6 5 5 7 8 7 8 7 4 5 4 4 3 6 6 7 6 8 6 7 8 5 4 7 9 9 7 5 10 12 14 13 16 18 20 17 14 12 10 6 4 4
3 3 6 6 3 3 3 5 7 8 8 8 6 3 6 9 6 8 9 9 11 9 6 3 6 6 5 5 7 9 11 14 13 13 16 19 19 17 13 9 8 7 4 5
2 3 8 7 3 1 5 7 5 8 7 8 6 6 3 7 6 10 13 13 10 8 3 3 3 4 5 7 8 12 16 17 15 13 15 13 15 12 11 8 6 5 5 6
3 2 7 6 4 7 6 1 6 7 8 13 5 7 6 7 8 13 14 13 7 4 1 1 6 7 6 8 11 15 18 19 15 12 14 13 13 8 3 4 4 5 7 7
9 6 4 6 4 3 2 3 5 6 6 8 8 6 7 7 7 10 12 9 5 2 1 4 6 5 8 11 15 17 16 15 11 12 14 14 14 11 7 4 5 7 8 8
2 4 7 9 6 6 5 6 4 4 5 8 8 9 8 7 7 10 8 6 2 1 3 6 7 7 9 14 17 14 12 10 12 15 12 12 10 7 6 6 7 9 9 10
5 9 5 9 8 6 5 4 4 4 5 6 11 9 9 6 8 9 6 2 1 2 5 8 7 11 13 15 15 11 11 11 16 19 13 10 9 9 9 8 10 12 12 11
6 8 4 6 4 4 7 7 7 7 6 6 9 10 12 8 10 8 4 1 1 4 7 9 12 15 15 13 13 12 13 14 17 17 12 11 9 10 11 10 11 12 12 12
5 1 5 3 4 2 5 5 4 7 9 10 13 16 13 8 7 5 2 1 3 6 8 12 14 17 14 12 13 12 17 18 17 14 12 12 11 9 12 14 12 12 11 10
4 4 3 4 3 5 7 12 18 19 17 19 17 12 10 7 6 3 3 3 5 7 11 12 14 15 17 14 15 15 16 18 16 15 14 15 18 15 11 14 15 15 10 11
5 2 3 1 6 8 14 17 14 12 13 11 9 8 5 6 5 5 4 5 6 9 11 12 13 16 15 16 16 17 16 19 20 16 14 16 18 20 17 14 17 16 14 13
2 5 7 10 11 11 13 14 14 9 6 7 5 6 6 6 6 5 5 7 7 9 10 13 15 16 14 16 19 20 19 22 21 16 15 15 13 18 20 19 21 20 18 16
3 5 8 12 12 13 12 9 7 5 5 7 6 6 7 8 8 8 7 7 8 11 14 17 19 16 15 16 19 19 21 21 24 17 15 16 16 17 16 17 17 17 18 18
18 17 17 12 11 10 7 7 6 7 3 4 4 6 8 9 11 10 10 10 12 13 15 16 15 15 16 16 18 19 22 24 24 20 18 17 17 17 18 18 18 19 20 17
21 16 15 13 8 7 6 4 4 2 1 3 5 8 9 12 12 14 14 15 18 18 18 15 16 16 18 18 18 19 21 23 24 21 20 18 18 19 21 22 22 21 19 19
12 11 9 6 3 3 2 2 3 3 4 6 7 9 12 16 17 18 17 20 22 23 20 17 16 19 21 24 23 21 21 22 23 23 22 22 23 26 27 26 25 24 23 22
6 4 4 3 3 4 4 4 5 7 9 9 10 14 16 19 19 19 18 16 30 23 17 16 18 21 19 18 21 23 24 20 21 23 22 26 27 27 28 28 27 27 26 25
5 5 5 5 5 7 7 7 8 10 11 12 13 16 16 19 21 23 24 23 31 26 17 16 16 17 19 20 21 22 21 21 21 22 24 24 24 24 26 28 29 28 26 25
6 6 7 7 8 9 12 12 11 12 14 16 18 20 21 23 23 19 16 26 22 15 15 16 17 17 18 20 21 21 21 21 23 23 22 23 26 25 25 25 27 28 27 25
7 9 11 13 14 17 16 19 21 21 21 23 23 24 24 25 28 24 26 24 18 18 17 16 14 14 17 20 21 21 22 22 21 22 24 24 25 25 26 26 26 27 27 26
13 14 16 18 15 13 16 21 23 21 25 26 28 28 27 26 24 32 26 26 23 24 15 12 10 12 16 19 18 19 22 22 22 24 24 24 23 25 27 27 27 27 26 26
14 12 12 13 13 14 16 17 16 17 19 22 25 25 26 27 31 26 26 24 25 19 10 9 10 14 16 15 15 15 17 18 20 21 21 23 25 24 26 29 28 27 24 21
12 14 13 13 15 16 19 19 19 22 23 23 27 29 26 27 27 27 25 24 19 10 7 6 9 10 10 11 12 14 16 17 18 19 19 19 20 23 26 29 28 23 20 12

GFSNGP_925_spd_036.txt.gz
Wind_Speed
2 0 3 5 8 13 16 14 8 12 11 11 7 9 10 10 12 14 15 16 15 14 15 17 17 15 11 11 10 6 5 6 6 6 6 6 10 13 13 12 11 10 8 7
3 3 3 7 10 11 15 16 15 19 20 16 9 7 8 11 13 16 15 16 16 14 16 16 15 13 13 11 8 5 6 7 6 6 6 8 12 13 13 12 12 11 10 9
2 2 3 6 16 18 13 13 15 14 16 3 7 10 11 12 14 15 16 17 16 15 16 15 14 14 12 10 6 5 6 6 6 6 8 11 12 13 14 14 13 11 11 10
1 1 3 1 1 3 13 17 15 17 13 8 5 3 4 8 12 14 14 16 14 15 15 14 14 13 10 7 5 4 6 6 6 8 11 12 12 13 13 13 12 11 10 10
2 4 6 12 3 3 4 6 5 11 11 5 3 2 8 9 10 12 13 15 15 14 14 16 14 11 7 4 4 5 6 7 9 11 12 12 12 12 13 13 13 11 11 10
3 3 3 3 3 1 2 5 6 3 4 8 7 4 3 8 10 9 13 13 14 15 15 14 11 6 5 6 6 7 6 8 10 11 13 13 12 13 14 13 13 11 11 10
3 4 6 1 2 2 3 3 6 4 6 9 7 4 3 5 9 12 14 16 18 18 15 11 7 6 6 6 7 6 7 10 11 12 12 12 13 13 14 13 12 10 9 9
3 3 4 5 6 3 4 4 5 4 5 9 5 1 1 7 11 15 18 19 17 17 13 6 5 5 6 7 5 6 9 12 12 10 10 10 13 15 14 13 11 10 9 10
6 1 3 6 5 3 4 8 7 6 5 7 7 6 6 8 11 13 16 16 15 13 12 9 5 4 6 5 6 8 11 12 12 11 10 12 15 15 14 12 11 11 11 12
1 2 6 8 8 9 9 11 11 11 10 7 10 7 8 10 11 14 14 14 10 8 7 7 5 3 4 7 8 9 12 12 11 11 11 15 14 14 13 12 11 10 11 12
4 9 6 2 3 6 10 9 9 7 6 8 7 7 10 11 12 13 13 8 5 6 5 3 1 3 6 8 9 10 11 11 10 11 13 15 14 14 13 13 12 11 13 12
2 6 4 7 10 10 10 10 9 6 3 3 3 9 13 11 15 14 7 4 4 2 1 3 4 7 8 8 8 9 10 9 10 12 15 15 16 14 14 15 15 16 16 17
5 11 9 8 6 11 9 8 8 9 10 11 15 17 17 15 9 6 2 3 3 5 4 5 6 8 8 7 6 8 9 10 11 13 14 15 16 16 15 12 15 15 17 18
9 9 2 12 6 10 12 16 20 22 21 20 20 19 16 9 1 3 5 6 5 5 6 7 8 8 8 7 8 9 9 12 13 14 14 14 16 18 15 14 15 15 15 14
9 7 7 8 11 13 17 18 17 15 15 14 14 9 6 2 5 7 6 6 6 8 9 9 10 10 9 10 11 12 12 14 15 17 17 16 17 18 16 14 15 17 15 15
8 11 12 13 13 14 15 12 11 8 7 7 5 2 3 5 6 5 6 8 8 10 10 11 16 15 12 13 14 15 16 17 16 16 17 18 17 17 18 15 14 15 15 16
7 9 11 12 11 9 9 10 10 8 4 2 4 6 5 4 7 9 9 9 14 18 19 20 22 16 15 15 16 17 18 18 17 17 17 16 16 17 17 16 15 16 16 15
15 14 15 13 10 8 5 4 3 4 6 6 4 3 5 7 9 12 14 14 16 20 23 25 25 22 20 18 16 17 18 19 19 19 21 17 15 16 18 18 17 18 18 16
13 12 10 9 7 6 5 5 6 5 6 6 7 8 10 12 12 13 15 15 17 18 20 16 19 23 20 18 19 15 17 17 19 20 21 22 17 16 17 19 20 20 20 19
8 7 6 7 7 7 6 7 8 7 8 8 10 11 11 15 16 18 18 16 18 21 22 21 20 19 19 18 20 16 14 15 18 20 20 20 19 18 17 18 20 21 22 22
8 8 8 8 8 10 11 11 11 10 9 12 12 12 13 19 20 19 16 19 21 20 18 20 21 21 17 17 16 16 17 18 18 18 18 18 18 19 19 18 19 20 20 21
7 8 9 8 8 9 11 11 11 11 13 13 14 14 15 16 18 19 15 19 22 22 27 26 24 23 24 22 17 18 16 15 17 19 19 19 18 18 18 18 17 17 18 20
8 8 9 10 9 7 6 10 12 10 12 13 14 17 18 19 19 19 20 22 24 26 29 28 28 28 24 23 21 17 12 13 15 15 15 17 19 19 19 19 20 20 20 20
10 9 7 6 5 7 10 13 13 11 12 13 15 16 18 22 22 19 24 29 30 30 31 31 30 25 23 16 11 8 7 9 10 10 12 14 14 15 16 18 20 22 21 20
7 6 7 6 7 9 10 13 13 13 15 16 16 16 17 18 20 28 27 28 29 32 30 31 19 14 7 5 4 3 3 4 6 8 9 11 12 14 15 16 18 20 22 24
7 6 7 8 8 9 11 13 13 14 16 17 17 19 20 21 22 24 26 27 25 23 18 16 14 11 9 8 7 6 6 6 7 8 10 11 12 13 15 17 18 19 20 23
8 8 7 6 8 9 10 11 13 15 16 18 21 21 21 22 22 21 21 20 19 18 16 15 14 13 11 10 10 9 9 8 10 11 11 12 13 14 15 17 18 18 19 20

GFSNGP_925_spd_039.txt.gz
Wind_Speed
14 5 7 9 9 10 16 17 15 12 15 12 9 6 8 8 10 12 13 14 15 15 15 19 18 19 18 13 13 12 11 9 6 7 7 8 8 11 13 14 14 14 13 12
6 9 9 12 14 14 15 16 17 19 18 16 11 9 6 10 9 12 14 14 15 15 18 18 18 19 16 14 13 11 9 7 7 6 8 9 10 12 13 14 15 16 13 13
5 3 5 6 15 18 18 17 14 16 16 11 8 6 9 10 7 10 11 13 14 15 17 17 19 17 14 13 10 7 8 7 6 7 9 10 12 13 13 14 15 16 11 12
1 1 1 3 1 4 7 12 14 13 14 13 9 8 6 5 7 8 9 11 11 14 15 16 15 15 14 10 9 9 6 6 7 8 11 12 13 13 14 14 15 16 10 9
3 6 9 12 5 1 1 5 10 8 10 8 5 5 12 7 3 5 7 8 11 13 14 14 14 15 12 10 7 5 5 6 7 10 12 13 14 15 14 15 15 14 11 11
3 3 4 4 4 1 1 4 8 9 8 5 2 4 4 4 3 4 6 9 11 12 13 15 17 14 13 6 5 6 5 7 9 11 13 14 15 15 15 15 16 13 11 11
5 3 6 5 2 2 4 4 9 9 9 6 6 6 7 6 4 7 9 10 10 12 14 15 12 9 5 3 5 5 7 8 10 12 13 13 14 14 15 17 15 12 10 10
3 3 5 5 6 1 5 6 7 9 8 7 8 6 6 5 4 4 6 9 11 11 12 9 6 2 1 5 3 4 7 10 12 13 13 13 14 14 16 16 16 12 10 11
6 1 5 3 4 3 6 8 8 10 9 10 9 11 7 6 3 3 7 9 11 12 10 8 5 2 4 4 4 6 9 12 13 14 14 14 16 16 15 17 15 11 10 11
1 4 0 3 3 3 9 9 11 10 10 11 10 10 6 0 3 5 8 10 13 10 9 4 2 3 2 3 6 9 11 13 14 14 14 15 17 16 14 14 14 11 11 12
5 6 5 6 7 10 11 9 9 10 7 9 10 7 4 5 6 10 13 12 9 7 2 0 1 3 4 6 8 10 12 13 13 13 14 16 16 17 14 13 14 14 13 13
1 5 4 7 11 10 9 10 10 9 9 12 10 9 12 12 16 14 11 8 5 4 6 5 5 6 7 8 9 10 11 11 11 12 15 15 17 17 17 18 17 20 21 21
3 7 4 7 11 11 12 13 13 14 15 14 20 20 19 14 14 9 7 5 4 4 7 8 9 10 9 9 9 9 11 11 11 12 13 14 15 17 17 18 18 18 20 21
5 7 9 10 7 11 15 15 20 21 21 20 20 18 15 12 8 5 4 6 7 9 9 10 11 12 11 10 11 13 14 14 14 14 15 14 16 18 19 20 18 16 14 19
6 8 9 11 12 11 13 15 14 12 11 12 12 12 9 6 3 3 5 7 8 10 12 13 14 15 12 12 15 16 16 17 16 17 17 18 20 21 19 22 22 20 16 16
10 10 10 10 11 12 12 11 12 8 7 7 6 4 5 5 6 7 8 9 10 12 13 15 18 20 17 18 19 20 21 21 21 21 20 17 17 18 20 21 20 20 17 15
10 9 10 11 10 9 9 9 7 7 8 10 9 8 8 8 9 9 10 11 15 19 21 22 24 20 19 20 23 24 24 23 20 19 19 20 20 20 20 20 20 19 19 17
14 13 14 12 10 7 6 6 6 7 8 7 7 8 10 11 10 12 13 17 21 23 23 21 20 18 18 21 23 26 25 23 20 20 21 20 20 23 23 20 18 20 20 18
15 13 12 10 8 7 7 7 7 6 8 8 9 10 10 11 11 14 16 17 18 20 20 20 22 24 23 24 25 24 23 22 22 20 18 20 22 22 23 19 18 20 20 21
11 10 10 11 10 9 8 8 7 8 9 12 13 12 13 14 18 17 17 17 19 19 18 18 27 26 26 28 29 28 23 22 21 19 20 20 21 22 22 21 22 19 18 19
10 10 9 9 10 12 13 10 11 10 10 13 11 11 13 17 16 17 18 19 21 20 21 27 28 27 27 29 29 29 26 25 21 18 17 18 21 21 20 19 19 19 19 18
10 10 9 8 8 9 9 10 10 9 10 10 11 13 16 18 19 18 17 20 23 28 29 29 29 30 31 35 32 28 26 22 18 13 12 15 15 16 16 17 17 17 17 18
9 10 9 8 7 6 6 8 8 6 8 11 12 14 15 16 18 20 19 23 27 27 31 31 31 31 33 33 31 26 27 17 5 6 8 11 13 14 15 17 19 20 20 19
9 8 8 6 6 5 5 8 10 8 9 11 12 14 15 19 19 18 21 26 27 28 27 22 29 28 26 23 20 16 13 10 8 7 7 8 10 11 12 14 15 17 19 20
8 8 7 4 4 5 7 10 10 10 12 13 13 14 16 17 18 22 23 22 23 23 23 22 23 25 22 20 17 16 14 12 12 11 11 10 11 12 12 14 15 17 19 19
6 5 5 6 6 7 8 10 10 11 13 14 14 16 17 18 18 19 17 19 19 20 20 20 21 22 20 18 17 16 15 14 14 13 13 13 13 14 15 16 16 17 19 20
7 5 4 3 6 8 9 9 11 12 13 13 16 16 17 18 16 17 16 17 18 18 19 18 18 19 19 18 17 16 15 14 14 15 14 14 14 15 16 17 18 19 20 20

GFSNGP_925_spd_042.txt.gz
Wind_Speed
14 14 7 9 12 8 11 10 10 11 15 12 11 7 5 2 6 7 7 9 9 7 8 15 16 17 19 18 15 13 16 14 11 5 2 4 5 6 8 9 11 13 15 14
8 9 13 11 15 15 15 15 14 14 14 11 8 8 8 7 7 6 5 6 4 4 6 12 15 17 16 17 15 16 13 8 1 0 3 4 5 7 10 11 12 12 13 13
2 6 7 5 10 16 16 15 13 11 10 8 12 8 5 3 6 4 5 6 6 6 8 10 15 17 16 17 15 12 6 1 3 4 5 5 8 9 10 10 12 12 16 16
1 1 1 8 4 5 5 8 9 9 12 12 12 11 8 5 5 6 1 4 3 4 8 8 14 17 13 13 13 7 5 4 3 4 5 6 8 12 12 12 10 14 15 10
3 4 7 12 1 3 2 5 11 10 10 10 10 8 12 5 9 7 7 4 3 1 5 8 11 15 13 11 7 7 4 5 3 4 6 7 10 13 13 13 12 14 15 11
3 2 4 1 5 3 2 2 8 9 9 8 9 3 6 6 3 5 4 6 2 3 8 14 13 13 11 10 7 7 6 7 10 8 9 11 14 13 12 13 14 15 10 8
3 1 5 6 5 1 2 3 5 6 8 8 7 3 5 9 9 6 10 9 14 17 18 17 13 13 14 13 12 5 3 7 9 10 12 12 12 14 14 15 18 17 13 11
2 2 5 6 5 2 4 5 7 7 8 6 5 9 6 4 7 9 12 18 17 22 26 25 21 20 15 10 4 7 7 7 10 14 14 16 15 14 15 18 13 13 12 9
7 3 6 4 5 5 6 5 7 8 8 8 8 8 8 4 7 10 16 14 20 23 21 19 17 15 10 1 3 5 7 10 12 14 16 16 14 15 16 19 12 11 12 11
2 4 7 4 9 12 10 8 8 8 10 10 10 10 8 9 10 19 24 22 22 19 16 12 8 3 5 5 8 8 10 12 14 15 14 14 16 18 18 15 9 10 11 12
4 3 3 13 13 10 8 10 10 9 14 11 7 11 14 15 16 20 19 17 16 13 8 5 2 3 9 10 7 9 11 13 13 13 15 15 16 16 15 14 12 14 14 15
1 7 4 12 10 10 11 11 11 11 14 17 20 17 21 15 18 17 15 12 9 5 4 5 7 8 7 8 10 12 12 12 12 13 13 14 14 18 20 19 19 21 23 24
4 4 9 12 13 14 13 13 14 15 17 13 18 19 19 15 13 14 9 4 2 2 5 6 8 11 12 12 12 14 14 14 15 15 15 15 15 17 18 19 19 21 22 26
4 5 8 6 10 11 15 15 16 16 15 15 15 13 12 10 7 4 1 1 5 8 10 11 13 14 14 14 14 15 18 18 20 23 22 19 15 19 20 20 20 21 24 23
9 12 13 13 13 12 14 14 12 11 11 11 10 9 6 4 5 7 8 8 8 11 13 14 15 17 18 20 19 19 21 23 24 25 24 23 23 23 21 19 21 22 22 21
11 11 11 13 12 12 12 12 11 6 6 11 13 14 12 12 11 9 9 12 13 12 16 20 22 24 18 18 21 23 24 25 26 27 24 22 22 20 19 19 20 20 20 21
11 10 11 12 11 10 10 10 11 10 12 12 11 9 10 10 9 12 12 14 17 19 22 22 23 20 20 19 20 23 24 26 28 29 24 19 19 20 20 20 18 23 24 21
10 11 12 12 9 8 8 12 11 12 10 8 9 9 10 10 10 12 16 18 20 21 21 16 17 25 25 25 26 27 26 28 28 26 23 21 20 21 19 22 22 21 24 16
18 14 15 13 11 12 12 11 10 13 12 11 10 10 8 8 12 13 14 20 18 16 16 20 23 27 28 28 28 26 27 29 27 30 28 23 21 21 18 19 21 22 22 20
16 16 16 15 15 14 12 11 12 13 12 12 10 14 15 17 18 18 20 16 15 18 27 27 29 27 28 28 29 29 29 30 29 29 23 20 18 16 16 18 21 20 19 19
14 15 15 15 15 16 14 12 12 11 10 15 16 15 16 17 15 18 15 14 17 27 25 27 28 25 27 32 37 31 30 29 26 26 29 20 10 7 8 12 15 18 17 16
13 12 12 14 13 13 12 11 10 12 13 15 12 14 16 14 16 15 16 17 23 25 26 26 23 31 37 33 27 28 30 27 24 24 19 4 7 9 11 13 15 18 19 20
14 13 12 13 11 10 11 11 8 11 11 11 9 12 13 14 15 17 15 20 21 27 25 22 27 33 28 26 28 27 28 24 24 24 20 18 14 13 13 13 15 17 19 21
13 12 11 10 9 8 8 10 8 7 10 10 10 13 14 15 15 15 17 19 22 24 23 21 26 28 27 26 26 26 26 23 24 24 22 21 19 17 17 17 18 19 20 20
12 11 9 6 7 8 7 8 7 8 10 10 11 12 14 13 14 18 18 18 20 20 20 21 22 24 24 24 24 24 24 23 23 22 22 21 20 20 19 20 20 20 21 20
9 10 10 10 9 7 7 8 8 9 10 11 11 14 14 13 12 16 16 17 18 19 19 20 21 22 21 22 22 23 22 22 23 23 21 21 20 20 20 21 21 22 23 21
10 7 6 7 8 7 7 7 8 9 10 8 11 15 14 11 13 14 16 18 18 18 19 20 20 21 21 21 21 21 20 21 21 21 21 21 21 20 21 22 22 22 22 21

GFSNGP_925_spd_045.txt.gz
Wind_Speed
4 5 5 2 1 4 6 6 6 9 8 9 5 5 2 5 1 2 6 7 9 10 8 19 22 22 24 30 29 26 19 12 11 14 8 10 1 9 6 7 9 13 13 13
1 5 7 4 7 6 7 6 3 2 4 5 3 6 8 7 7 7 8 7 7 10 13 17 22 25 28 30 28 20 14 10 17 16 6 9 12 5 6 12 12 10 9 12
2 4 6 6 7 6 6 4 3 2 4 8 10 9 6 8 8 7 8 8 6 7 11 19 24 29 29 29 22 17 19 18 12 5 5 2 2 6 10 14 14 14 12 15
3 3 2 9 2 5 7 7 8 8 7 7 7 10 11 8 9 10 8 8 7 6 9 20 26 27 28 26 27 23 19 15 10 9 2 2 3 11 12 12 13 14 14 15
4 4 4 7 2 2 4 4 6 8 8 7 5 8 8 8 7 7 7 7 12 19 22 24 26 29 31 27 25 22 17 17 15 11 10 8 9 9 13 16 14 14 15 16
2 4 6 6 3 4 3 1 5 8 8 8 8 5 3 7 8 10 22 24 25 27 29 31 28 30 30 24 27 23 20 13 11 10 7 11 16 15 15 16 21 19 16 13
3 2 7 5 5 0 6 5 4 6 6 7 4 4 4 6 12 22 25 26 30 33 30 27 29 32 28 26 22 19 14 10 1 8 15 16 14 15 19 18 17 19 20 15
3 2 5 6 4 6 5 4 7 6 5 6 6 6 4 10 13 18 21 25 27 29 27 27 27 29 23 21 15 9 1 6 10 12 14 16 17 20 20 17 20 21 15 13
7 6 6 7 12 6 8 7 6 7 8 7 7 7 14 14 16 20 23 24 24 25 22 21 23 19 15 8 4 3 4 9 13 14 13 15 19 17 15 18 20 25 17 15
5 1 8 11 10 9 10 10 13 12 9 7 8 15 14 13 13 17 18 18 20 20 16 13 9 9 8 3 5 6 8 10 13 15 16 13 17 16 18 18 11 11 14 18
4 11 14 11 7 10 12 13 15 16 16 13 16 14 13 12 12 16 16 15 14 13 11 12 9 6 7 7 8 10 12 14 15 14 16 16 15 15 14 14 15 16 18 19
4 5 10 6 8 13 15 13 12 14 14 15 15 12 13 10 12 12 12 13 14 11 7 4 5 6 6 9 11 15 15 15 18 19 18 19 21 23 18 18 18 17 22 22
5 11 16 14 14 14 15 13 13 14 14 12 14 15 15 12 14 13 12 9 5 6 8 7 8 12 13 14 14 16 19 21 20 21 23 24 25 25 26 27 24 24 22 22
13 18 11 4 9 12 15 17 20 19 18 17 17 17 16 13 9 7 5 8 10 11 12 13 12 13 15 17 15 16 21 24 25 27 29 30 32 31 30 28 24 26 29 24
13 13 15 15 16 12 16 16 12 9 9 11 10 9 9 10 13 17 17 15 13 12 13 15 18 20 20 20 21 23 24 27 29 32 34 36 32 29 29 30 30 27 28 29
14 14 14 15 14 12 11 8 8 6 10 12 15 17 15 16 16 15 16 17 16 14 17 18 18 19 19 21 23 23 23 24 26 26 27 27 27 28 24 20 19 23 24 26
15 12 13 13 13 12 11 11 12 12 13 14 13 12 15 16 16 16 16 17 16 15 15 14 20 22 26 22 23 24 25 27 26 26 26 27 27 25 24 18 16 18 19 26
12 11 11 15 13 12 11 15 16 16 12 11 12 13 14 13 11 12 17 17 17 14 20 21 25 28 27 25 25 26 25 27 28 28 28 28 27 28 28 22 21 22 23 24
20 15 16 16 19 18 15 16 17 18 16 14 17 14 11 12 13 15 16 18 17 17 19 22 27 21 20 25 33 35 31 30 31 30 27 28 27 29 28 19 22 16 20 25
20 22 22 20 22 20 17 19 20 20 16 16 15 16 15 16 16 15 15 13 16 17 24 25 19 24 32 33 28 28 27 26 29 32 28 26 28 30 31 17 2 8 11 14
16 18 18 20 19 21 21 19 19 16 14 15 18 17 14 13 14 15 14 10 13 21 22 17 21 29 32 27 24 25 27 27 27 28 26 27 27 25 23 20 17 16 16 17
16 16 17 18 18 17 17 17 17 15 14 13 14 14 13 13 13 12 11 14 14 21 21 17 24 27 29 24 25 26 26 24 26 25 26 27 25 24 21 20 19 20 20 20
15 15 18 19 17 18 15 13 14 15 13 12 13 12 12 10 11 12 8 12 17 18 19 19 22 25 27 25 24 25 25 23 26 25 24 24 24 22 21 22 21 23 22 22
16 17 18 19 18 16 13 10 11 13 12 11 12 11 11 10 8 11 12 14 15 17 18 19 20 23 22 23 22 23 24 22 23 24 23 23 23 22 22 22 22 22 22 23
18 16 14 16 15 13 13 10 12 11 10 9 9 12 9 9 8 11 12 14 15 16 16 18 19 18 19 20 20 21 21 22 23 22 22 23 22 22 22 22 23 22 23 23
17 16 18 18 15 13 11 9 11 10 9 6 8 13 11 8 9 10 11 13 15 15 17 17 16 17 19 17 19 19 19 22 22 19 23 24 21 24 22 23 23 23 24 23
18 18 17 16 14 11 10 8 8 6 8 6 11 11 11 8 9 9 11 14 16 15 16 14 15 17 19 16 19 18 19 21 20 17 22 25 24 22 22 23 23 23 24 24

GFSNGP_925_spd_048.txt.gz
Wind_Speed
5 4 3 1 1 2 3 4 5 7 7 8 4 5 5 4 2 4 6 6 7 7 7 15 19 20 22 26 29 32 29 25 20 21 21 15 12 12 0 5 3 8 11 10
3 2 3 3 2 3 4 3 4 4 2 6 4 6 9 7 8 7 6 4 6 7 7 15 22 24 26 29 30 28 26 21 20 20 21 15 8 5 6 1 10 15 12 18
4 3 3 5 6 6 3 2 5 5 5 4 8 9 6 7 9 8 7 6 6 7 12 18 21 26 23 26 27 24 20 22 24 17 14 14 12 10 6 10 14 18 18 17
3 2 1 7 4 4 11 5 7 8 5 6 10 6 7 6 6 7 6 7 6 6 12 14 20 23 26 30 26 28 27 24 20 18 16 13 8 2 8 13 18 13 16 18
4 4 4 5 6 6 6 0 0 6 5 6 6 6 7 7 8 7 8 10 15 19 22 25 27 30 31 29 28 27 24 23 20 17 13 3 9 12 15 12 10 11 16 18
2 4 7 7 3 5 5 1 5 7 5 4 4 3 2 4 8 11 17 17 20 23 28 30 25 32 33 25 24 23 22 19 13 3 10 13 11 13 9 12 15 18 17 18
2 3 7 7 6 3 6 6 6 7 6 4 4 4 7 9 13 17 18 20 23 27 27 24 26 29 26 23 22 18 10 8 12 9 5 8 9 14 16 18 19 20 18 20
3 3 6 6 4 7 6 4 7 6 5 8 7 13 13 11 12 14 17 20 21 25 23 25 24 25 20 15 9 1 5 4 3 6 8 13 15 13 16 18 17 19 22 23
8 5 3 2 5 5 6 7 4 7 5 9 12 11 11 11 11 14 16 17 18 21 21 18 14 12 9 8 5 3 1 3 7 10 11 12 14 15 14 16 18 20 19 20
5 4 4 7 8 7 7 10 7 6 7 12 14 11 13 11 10 12 13 13 14 16 16 15 13 12 8 4 4 5 7 10 12 12 13 14 14 18 17 16 15 14 15 18
5 2 8 8 6 10 12 11 14 13 12 13 16 12 12 9 10 13 13 16 17 15 13 10 9 9 8 8 9 11 13 14 15 15 17 20 21 20 21 22 22 23 24 22
5 12 4 4 5 7 12 10 11 15 13 12 14 12 14 10 14 15 14 15 15 13 11 10 10 12 14 14 14 15 17 19 21 21 23 24 25 29 29 29 28 27 26 24
6 7 13 12 9 8 13 12 12 14 15 13 14 18 16 12 14 16 15 15 15 14 14 14 14 15 16 17 16 17 19 21 24 28 31 32 32 29 27 36 32 33 32 33
19 18 10 0 8 11 15 18 21 20 18 18 18 19 19 15 18 20 18 15 13 14 16 16 16 19 20 21 20 20 21 22 23 25 25 26 25 27 27 25 26 28 30 30
6 9 13 15 15 13 18 18 14 11 10 13 17 17 19 17 16 15 15 14 13 16 17 17 18 20 22 22 23 24 24 23 26 25 25 25 25 25 26 27 28 27 27 28
15 18 16 15 14 13 12 10 13 9 10 14 16 17 17 20 18 17 16 16 16 13 12 13 18 21 23 21 21 22 23 25 26 25 27 27 27 26 26 26 28 27 24 24
19 10 14 14 14 11 9 8 10 11 14 14 14 13 17 17 17 16 15 13 16 14 14 18 20 20 19 21 26 28 29 27 26 23 26 28 27 26 27 27 27 27 26 22
11 13 14 16 15 13 11 15 16 14 14 15 16 17 18 17 12 11 12 12 13 14 19 19 17 19 22 25 24 23 24 26 24 23 24 29 29 27 27 29 27 29 28 26
19 17 20 19 20 20 17 15 16 17 18 18 18 17 15 13 11 11 12 14 16 14 16 14 17 21 23 22 21 20 21 21 23 22 23 26 26 24 25 31 28 19 14 11
19 23 25 22 21 25 19 18 20 19 17 17 17 16 15 14 13 12 13 15 13 12 13 10 17 19 19 18 18 19 19 18 22 21 23 24 23 25 24 25 25 24 25 24
16 21 21 22 20 20 20 22 21 17 15 15 17 15 15 13 12 10 11 8 9 13 11 8 15 18 21 20 17 21 18 18 24 22 21 22 22 22 22 23 22 23 23 24
18 19 19 20 20 18 18 18 19 19 16 16 15 13 12 12 11 12 11 8 8 10 9 9 12 15 18 20 20 20 20 19 21 23 21 21 22 21 21 22 22 22 21 22
19 19 19 18 18 18 19 17 16 16 15 15 13 11 10 9 8 8 5 6 6 8 8 10 12 14 16 18 18 18 18 20 19 20 20 22 20 19 21 21 22 22 22 23
18 18 18 19 22 18 14 13 14 15 16 13 11 8 6 6 6 5 4 4 6 8 9 11 12 13 16 16 15 16 15 18 19 16 20 22 19 21 21 20 21 22 21 22
19 18 19 16 14 11 15 15 14 12 11 9 8 6 5 5 3 4 4 6 8 8 10 9 11 13 15 12 13 14 15 18 18 13 19 23 23 22 20 20 21 21 22 23
17 15 16 15 14 13 13 11 11 8 6 6 6 5 4 5 3 2 5 9 11 9 9 10 12 13 15 10 13 13 15 17 18 13 18 23 24 21 20 20 21 23 22 22
19 19 17 15 13 11 11 9 8 6 5 4 5 5 5 2 2 5 8 12 12 8 9 9 11 13 15 12 10 11 14 17 18 18 20 24 24 21 20 20 21 23 22 23